�������ċp�F�����K�X���j�^�v���󋵏��
Date,Time,�ċp�F�����K�X���j�^(cps),����,����(m/s)
2021/12/29,00:00,1.3,���쐼,6.5
2021/12/29,00:10,1.4,���쐼,6.1
2021/12/29,00:20,1.5,���쐼,5.3
2021/12/29,00:30,1.4,���쐼,5.1
2021/12/29,00:40,1.5,�쐼,4.8
2021/12/29,00:50,1.6,�쐼,4.1
2021/12/29,01:00,1.5,��쐼,4.2
2021/12/29,01:10,1.4,��쐼,4.4
2021/12/29,01:20,1.5,��쐼,5.6
2021/12/29,01:30,1.5,�쐼,4.7
2021/12/29,01:40,1.6,�쐼,4.8
2021/12/29,01:50,1.5,�쐼,4.2
2021/12/29,02:00,1.6,��쐼,4.1
2021/12/29,02:10,1.5,��쐼,4.5
2021/12/29,02:20,1.6,��쐼,5.2
2021/12/29,02:30,1.5,��쐼,4.8
2021/12/29,02:40,1.5,��쐼,4.6
2021/12/29,02:50,1.4,��쐼,5.3
2021/12/29,03:00,1.5,��쐼,4.8
2021/12/29,03:10,1.5,��쐼,4.7
2021/12/29,03:20,1.5,��쐼,4.7
2021/12/29,03:30,1.5,�쐼,4.9
2021/12/29,03:40,1.5,�쐼,4.6
2021/12/29,03:50,1.5,��쐼,4.2
2021/12/29,04:00,1.5,��쐼,4.3
2021/12/29,04:10,1.5,��쐼,3.9
2021/12/29,04:20,1.4,�쐼,3.8
2021/12/29,04:30,1.5,���쐼,2.8
2021/12/29,04:40,1.5,���k��,6.8
2021/12/29,04:50,1.5,���k��,10.0
2021/12/29,05:00,1.5,���k��,10.3
2021/12/29,05:10,1.5,���k��,11.1
2021/12/29,05:20,1.4,���k��,8.0
2021/12/29,05:30,1.5,��,8.6
2021/12/29,05:40,1.5,��,9.0
2021/12/29,05:50,1.4,���k��,10.2
2021/12/29,06:00,1.6,���k��,9.2
2021/12/29,06:10,1.5,��,6.1
2021/12/29,06:20,1.4,��,5.6
2021/12/29,06:30,1.5,��,5.2
2021/12/29,06:40,1.5,���쐼,5.7
2021/12/29,06:50,1.5,���쐼,5.7
2021/12/29,07:00,1.5,�쐼,4.1
2021/12/29,07:10,1.5,�쐼,4.3
2021/12/29,07:20,1.5,�쐼,6.8
2021/12/29,07:30,1.5,��쐼,6.1
2021/12/29,07:40,1.5,��쐼,5.5
2021/12/29,07:50,1.5,��쐼,5.2
2021/12/29,08:00,1.6,��쐼,4.8
2021/12/29,08:10,1.5,��쐼,4.5
2021/12/29,08:20,1.5,��쐼,4.4
2021/12/29,08:30,1.5,��쐼,4.4
2021/12/29,08:40,1.5,��쐼,5.1
2021/12/29,08:50,1.5,��쐼,5.4
2021/12/29,09:00,1.5,�쐼,4.1
2021/12/29,09:10,1.5,�쐼,3.4
2021/12/29,09:20,1.5,�쐼,5.7
2021/12/29,09:30,1.4,�쐼,5.6
2021/12/29,09:40,1.5,��,3.6
2021/12/29,09:50,1.5,��쐼,3.4
2021/12/29,10:00,1.5,�쐼,5.7
2021/12/29,10:10,1.5,�쐼,5.8
2021/12/29,10:20,1.5,��,5.1
2021/12/29,10:30,1.5,��,8.8
2021/12/29,10:40,1.5,��,7.2
2021/12/29,10:50,1.5,��,6.7
2021/12/29,11:00,1.4,��,5.8
2021/12/29,11:10,1.5,��,8.0
2021/12/29,11:20,1.6,��,8.1
2021/12/29,11:30,1.6,��,7.5
2021/12/29,11:40,1.6,��,9.1
2021/12/29,11:50,1.5,��,8.0
2021/12/29,12:00,1.5,��쓌,9.8
2021/12/29,12:10,1.5,��쓌,7.8
2021/12/29,12:20,1.5,��,6.8
2021/12/29,12:30,1.5,��,6.4
2021/12/29,12:40,1.6,��쓌,6.5
2021/12/29,12:50,1.5,��,7.1
2021/12/29,13:00,1.5,��,7.8
2021/12/29,13:10,1.5,��,6.3
2021/12/29,13:20,1.5,��,5.2
2021/12/29,13:30,1.4,��,4.9
2021/12/29,13:40,1.5,��쐼,7.6
2021/12/29,13:50,1.6,��쐼,9.2
2021/12/29,14:00,1.5,��쐼,8.7
2021/12/29,14:10,1.4,��쐼,7.2
2021/12/29,14:20,1.5,��쐼,8.0
2021/12/29,14:30,1.4,��쐼,7.3
2021/12/29,14:40,1.5,��,8.5
2021/12/29,14:50,1.5,��쐼,6.5
2021/12/29,15:00,1.5,��,8.5
2021/12/29,15:10,1.6,��쐼,7.0
2021/12/29,15:20,1.5,��,5.7
2021/12/29,15:30,1.4,��,6.6
2021/12/29,15:40,1.5,��,8.0
2021/12/29,15:50,1.5,��,6.3
2021/12/29,16:00,1.5,��,5.8
2021/12/29,16:10,1.5,��,3.6
2021/12/29,16:20,1.5,��,4.5
2021/12/29,16:30,1.5,��,5.9
2021/12/29,16:40,1.5,��,7.5
2021/12/29,16:50,1.5,��,8.0
2021/12/29,17:00,1.5,��,6.9
2021/12/29,17:10,1.5,��,6.3
2021/12/29,17:20,1.5,��쐼,4.8
2021/12/29,17:30,1.5,�쐼,3.4
2021/12/29,17:40,1.5,��쐼,3.4
2021/12/29,17:50,1.5,��쐼,3.7
2021/12/29,18:00,1.5,��쐼,2.9
2021/12/29,18:10,1.5,��쐼,4.1
2021/12/29,18:20,1.6,��쐼,4.2
2021/12/29,18:30,1.5,��쐼,3.1
2021/12/29,18:40,1.5,��쐼,2.3
2021/12/29,18:50,1.5,��쐼,1.9
2021/12/29,19:00,1.5,��쐼,2.8
2021/12/29,19:10,1.6,��쐼,2.3
2021/12/29,19:20,1.5,�쐼,2.6
2021/12/29,19:30,1.4,���쐼,2.6
2021/12/29,19:40,1.5,��,2.3
2021/12/29,19:50,1.5,�쐼,1.5
2021/12/29,20:00,1.4,��쐼,1.5
2021/12/29,20:10,1.4,�쐼,2.9
2021/12/29,20:20,1.6,�쐼,5.1
2021/12/29,20:30,1.4,�쐼,5.5
2021/12/29,20:40,1.5,�쐼,6.3
2021/12/29,20:50,1.5,���쐼,5.4
2021/12/29,21:00,1.6,���쐼,3.9
2021/12/29,21:10,1.5,���쐼,3.0
2021/12/29,21:20,1.4,���쐼,3.7
2021/12/29,21:30,1.6,���쐼,5.4
2021/12/29,21:40,1.5,���쐼,5.1
2021/12/29,21:50,1.4,�쐼,6.8
2021/12/29,22:00,1.4,��쐼,8.0
2021/12/29,22:10,1.6,�쐼,9.2
2021/12/29,22:20,1.5,���쐼,9.8
2021/12/29,22:30,1.5,���쐼,10.3
2021/12/29,22:40,1.6,�쐼,9.1
2021/12/29,22:50,1.5,���쐼,8.2
2021/12/29,23:00,1.5,�쐼,8.2
2021/12/29,23:10,1.5,�쐼,8.6
2021/12/29,23:20,1.5,�쐼,7.5
2021/12/29,23:30,1.5,���쐼,6.2
2021/12/29,23:40,1.5,���k��,4.2
2021/12/29,23:50,1.5,���k��,4.4
